Regional Weather Roundup
Issued by NWS

Home | Current Version | Previous Version | Text Only | Print | Product List | Glossary On
Versions: 1 2 3 4 5 6 7 8 9 10 11 12 13 14 15 16 17 18 19 20 21 22 23 24 25 26 27 28 29 30 31 32 33 34 35 36 37 38 39 40 41 42 43 44 45 46 47 48 49 50
000
ASUS43 KTOP 060108
RWRKS

WEATHER ROUNDUP FOR KANSAS
NATIONAL WEATHER SERVICE GOODLAND KS
700 PM CST FRI FEB 05 2016

NOTE:  "FAIR" INDICATES FEW OR NO CLOUDS BELOW 12,000 FEET WITH NO
SIGNIFICANT WEATHER AND/OR OBSTRUCTIONS TO VISIBILITY.

KSZ001>006-013>018-027>032-041>047-060200-
NORTHWEST KANSAS

CITY           SKY/WX    TMP DP  RH WIND       PRES   REMARKS
GOODLAND       CLEAR     26  19  74 NW10      30.27S WCI  16
HAYS           CLEAR     34  19  55 NW10      30.27S WCI  26
HILL CITY      MOCLDY    33  26  75 NW8       30.28R
RUSSELL        CLEAR     33  27  78 NW10      30.26R WCI  25
$$

KSZ061>065-074>080-084>089-060200-
SOUTHWEST KANSAS

CITY           SKY/WX    TMP DP  RH WIND       PRES   REMARKS
DODGE CITY     CLEAR     28  21  75 NW10      30.28R WCI  19
ELKHART          N/A    N/A N/A N/A MISG        N/A
GARDEN CITY    CLEAR     31  24  75 NW8       30.29R
GREAT BEND     CLEAR     32  21  64 W7        30.28R
LIBERAL        CLEAR     34  18  51 N9        30.31R
PRATT          PTCLDY    31  17  55 NW7       30.27R
$$

KSZ066>073-081>083-090>101-060200-
SOUTHEAST KANSAS

CITY           SKY/WX    TMP DP  RH WIND       PRES   REMARKS
CHANUTE        MOCLDY    43  24  47 SE6       30.27S
COFFEYVILLE    CLOUDY    46  24  42 SE7       30.28S
HUTCHINSON     PTCLDY    35  19  52 NW6       30.26S
MEDICINE LODGE   N/A     39  24  55 N3        30.28R
NEWTON         CLEAR     39  21  48 NW6       30.27S
PARSONS        MOCLDY    46  23  40 SE3       30.28S
WICHITA INTL   PTCLDY    41  24  51 N8        30.25R
WICHITA JABRA  CLEAR     39  25  57 NW9       30.25R
WICHITA MCCONL PTCLDY    43  25  49 NW7       30.25R
WINFIELD       MOCLDY    44  28  53 S3        30.26R
$$

KSZ007>012-019>026-033>040-048>060-102>105-060200-
NORTHEAST KANSAS

CITY           SKY/WX    TMP DP  RH WIND       PRES   REMARKS
CONCORDIA      CLEAR     34  25  69 W8        30.25R
EMPORIA        CLEAR     42  23  46 SE5       30.25R
LAWRENCE       CLOUDY    32  22  66 NE5       30.29S
MANHATTAN      CLOUDY    38  23  55 CALM      30.26R
MARYSVILLE     MOCLDY    34  25  69 CALM      30.25S
OLATHE IND     PTCLDY    36  22  56 SE5       30.28S
OLATHE EXE     MOCLDY    39  22  50 SE3       30.27F
SALINA         CLEAR     38  22  52 NW8       30.27R
TOPEKA BILLARD PTCLDY    35  23  61 CALM      30.28S
TOPEKA FORBES  PTCLDY    36  23  59 E3        30.27R
$$



USA.gov is the U.S. government's official web portal to all federal, state and local government web resources and services.